Location: Unspecified
(0.0000°N, 0.0000°E)
Time: 05:25:07
(UTC+00:00)

CANX-2 - Pass Details

Date: 19 May 2026
Orbit: 542 x 558 km, 97.9° (Epoch: 11 June)

Event Time Altitude Azimuth Distance (km) Brightness Sun altitude
Rises 04:56:56 0° 336° (NNW) 2,684 ? -14.0°
Reaches altitude 10° 05:00:18 10° 304° (NW) 1,799 ? -13.2°
Enters shadow 05:00:59 11° 294° (WNW) 1,716 ? -13.0°
